EW4107 Weather Reports


time (UTC)temp
C
wind
direction
speed
KPH
gust
KPH
rain 1hr
cm
rain 24hr
cm
rain mn
cm
humidity
%
barometer
mb
20260504081559 8 190 4.8 14.5 0.00 0.00 0.00 58 1009.6
20260504050002 5 296 3.2 4.8 0.00 0.00 0.00 27 1009.9
20260504044604 4 296 0.0 4.8 0.00 0.00 0.00 28 1010.0
20260504043055 4 296 0.0 4.8 0.00 0.00 0.00 24 1010.0
20260504041550 4 296 1.6 4.8 0.00 0.00 0.00 28 1010.1
20260504040045 3 296 1.6 4.8 0.00 0.00 0.00 21 1009.9
20260504034542 3 296 0.0 3.2 0.00 0.00 0.00 11 1009.9
20260504033035 2 296 1.6 4.8 0.00 0.00 0.00 12 1009.9
20260504031530 2 296 3.2 4.8 0.00 0.00 0.00 21 1009.8
20260504030037 3 296 1.6 4.8 0.00 0.00 0.00 27 1009.7
20260504024523 3 296 3.2 4.8 0.00 0.00 0.00 31 1009.6
20260504023018 3 296 3.2 4.8 0.00 0.00 0.00 41 1009.7
20260504021514 3 296 1.6 4.8 0.00 0.00 0.00 45 1009.8
20260504020015 4 296 0.0 3.2 0.00 0.00 0.00 54 1009.9
20260504014507 5 296 1.6 3.2 0.00 0.00 0.00 61 1009.8
20260504013009 5 296 0.0 3.2 0.00 0.00 0.00 62 1009.7
20260504011506 6 296 1.6 3.2 0.00 0.00 0.00 63 1009.5
20260504010005 7 296 1.6 3.2 0.00 0.00 0.00 60 1009.2
20260504004506 8 296 0.0 4.8 0.00 0.00 0.00 53 1009.1
20260504003004 9 296 0.0 4.8 0.00 0.00 0.00 46 1008.9
20260504001504 10 296 1.6 6.4 0.00 0.00 0.00 47 1008.8
20260504000003 10 296 0.0 3.2 0.00 0.00 0.00 41 1008.6
20260503234504 10 296 0.0 4.8 0.00 0.00 0.00 40 1008.4
20260503233003 11 296 1.6 8.0 0.00 0.00 0.00 39 1008.2
20260503231501 11 292 0.0 8.0 0.00 0.00 0.00 37 1008.2
20260503230101 11 298 0.0 6.4 0.00 0.00 0.00 36 1008.0
20260503224556 11 269 1.6 8.0 0.00 0.00 0.00 33 1007.9
20260503223052 12 317 3.2 19.3 0.00 0.00 0.00 32 1007.8
20260503221546 13 284 3.2 12.9 0.00 0.00 0.00 32 1007.8
20260503220049 12 338 8.0 20.9 0.00 0.00 0.00 31 1007.8
20260503214538 12 259 9.7 22.5 0.00 0.00 0.00 31 1007.8
20260503213034 12 275 8.0 17.7 0.00 0.00 0.00 33 1007.8
20260503211528 12 296 3.2 24.1 0.00 0.00 0.00 36 1007.6
20260503210024 12 265 6.4 22.5 0.00 0.00 0.00 37 1007.6
20260503204520 11 246 4.8 20.9 0.00 0.00 0.00 38 1007.7
20260503203027 11 9 4.8 22.5 0.00 0.00 0.00 39 1007.9
20260503201518 12 302 9.7 19.3 0.00 0.00 0.00 39 1007.9
20260503200011 11 22 3.2 29.0 0.00 0.00 0.00 43 1008.1
20260503194507 11 249 8.0 17.7 0.00 0.00 0.00 42 1008.3
20260503193003 11 259 6.4 20.9 0.00 0.00 0.00 41 1008.6
20260503191605 10 336 9.7 25.7 0.00 0.00 0.00 45 1008.7
20260503190055 10 250 6.4 24.1 0.00 0.00 0.00 44 1008.9
20260503184603 10 291 6.4 25.7 0.00 0.00 0.00 45 1009.0
20260503183056 9 234 8.0 27.4 0.00 0.00 0.00 43 1009.1
20260503181540 9 336 8.0 27.4 0.00 0.00 0.00 44 1009.2
20260503180037 9 317 1.6 20.9 0.00 0.00 0.00 47 1009.1
20260503174532 8 263 12.9 29.0 0.00 0.00 0.00 43 1009.1
20260503173028 8 266 8.0 20.9 0.00 0.00 0.00 44 1009.1
20260503171523 8 315 8.0 24.1 0.00 0.00 0.00 45 1009.1